Wind_Speed
16 15 15 15 14 15 15 14 14 12 10 9 8 7 6 5 5 4 5 6 7 8 9 10 11 11 12 13 13 13 14 14 14 14 14 14 14 14 15 15 14 14 15 16 17 17 17 17 17 18 18 20 21 21 22 23 23 24 25 24 24 25 28 30 30 30 30 30 31 32 32 32 33 33 34 34 35 36 36 37 38 38 39 40 40 40 41 42
20 18 17 16 15 14 13 12 11 10 8 6 5 3 3 3 3 4 6 7 8 9 10 11 12 13 13 14 14 14 15 15 15 16 16 16 16 16 16 16 16 16 16 17 17 18 19 20 20 21 21 22 23 23 24 24 25 26 26 26 26 27 29 30 31 31 32 32 32 32 33 34 34 35 36 36 37 38 38 39 40 40 41 41 42 42 43 43
21 19 18 16 14 13 11 10 9 7 6 4 2 0 1 3 4 6 7 8 10 10 11 12 12 13 13 13 14 14 14 15 15 15 16 16 16 16 16 17 18 19 19 19 19 20 21 22 22 23 23 24 24 25 26 26 27 28 28 28 28 28 29 30 31 32 33 33 34 34 35 35 35 36 36 37 37 38 38 39 40 40 40 41 41 41 42 42
20 18 17 15 13 12 11 10 8 6 5 3 3 3 3 4 6 7 8 9 10 11 11 12 12 12 12 12 12 12 12 13 14 14 14 15 15 14 15 17 18 19 19 20 20 21 22 22 23 24 24 24 25 26 26 27 27 28 28 29 28 28 30 30 31 33 34 34 35 35 35 35 36 36 35 35 36 36 36 37 37 38 38 39 39 39 40 40
18 17 15 14 12 11 10 9 8 6 5 4 4 4 5 6 7 8 9 10 10 11 11 11 10 10 10 10 9 9 10 11 12 12 12 12 12 13 14 15 16 17 18 19 20 21 22 22 23 23 24 24 25 26 26 27 27 28 28 28 28 29 30 30 31 32 33 34 34 34 34 34 34 33 33 33 34 33 34 34 35 36 37 38 38 39 39 39
17 15 14 13 12 11 10 9 8 7 6 5 5 5 6 7 8 9 9 9 9 9 9 8 8 8 8 7 7 7 8 10 11 11 11 11 11 12 13 14 14 15 16 17 18 20 21 21 22 23 24 24 25 26 26 27 27 28 28 28 28 28 29 29 29 30 31 31 32 32 32 32 32 32 32 32 32 32 33 34 35 36 36 37 38 38 39 40
15 14 12 12 11 10 10 8 7 6 5 5 5 6 7 8 8 9 8 8 7 7 7 6 6 6 7 7 7 8 9 10 11 12 11 12 12 13 13 13 14 14 15 16 17 19 20 21 22 22 23 24 25 25 26 26 26 26 26 26 26 26 27 27 27 28 28 29 30 30 31 31 31 31 32 32 32 33 33 34 35 36 36 37 38 39 39 40
13 12 11 10 10 9 9 8 7 6 6 6 6 7 7 6 6 6 6 5 5 5 5 5 6 6 7 8 8 9 9 10 12 12 12 13 14 14 14 14 14 15 15 16 17 18 19 19 20 21 21 21 22 23 23 24 23 24 24 24 24 25 25 26 26 27 27 28 29 29 30 31 31 32 32 33 33 34 34 35 36 36 37 38 38 39 40 41
11 11 10 9 9 9 9 8 8 8 8 7 7 6 5 4 3 3 2 2 2 3 4 5 6 6 8 9 9 10 10 12 13 12 12 14 14 14 14 14 15 15 14 15 15 16 17 17 18 18 19 19 20 21 21 22 22 23 24 24 24 24 25 25 26 26 27 27 28 29 30 31 32 33 33 33 34 35 36 36 37 38 38 39 39 40 40 41
9 9 8 8 8 9 9 9 9 9 9 7 6 5 5 4 3 2 2 2 3 4 5 6 7 8 9 10 11 11 11 12 13 12 12 13 14 14 13 13 14 14 14 14 14 15 16 17 17 18 19 19 20 21 21 22 22 22 23 24 24 24 25 25 26 27 28 28 29 30 31 32 33 34 34 35 36 36 37 38 38 38 39 39 40 40 41 41
8 8 8 8 9 9 9 9 9 9 8 5 4 4 4 4 3 2 3 3 4 5 6 7 8 9 10 10 11 10 11 12 14 12 11 12 13 13 13 13 13 14 14 14 15 15 16 17 18 18 19 19 20 21 21 21 21 22 23 23 24 25 26 27 28 29 29 30 31 32 32 33 34 34 35 36 36 37 37 38 38 38 39 39 39 40 40 41
7 7 8 9 9 10 10 9 9 7 5 4 3 3 3 3 3 3 4 5 6 6 7 8 9 9 10 10 10 10 10 12 14 13 12 11 11 12 13 14 14 14 15 15 15 16 16 17 17 18 18 19 20 20 21 21 22 23 24 25 26 27 28 29 30 30 31 32 32 33 34 34 34 35 35 36 37 37 37 37 38 38 38 39 40 40 41 41
6 6 7 8 9 10 9 9 8 5 3 3 3 3 3 3 3 4 5 6 6 7 7 8 9 9 9 9 10 11 10 11 13 14 13 12 11 12 13 13 14 14 15 15 15 15 16 16 17 18 19 20 21 22 23 24 25 26 27 28 29 30 31 31 31 32 33 33 34 35 35 35 34 35 36 36 36 36 36 37 37 38 39 39 40 41 41 42
4 5 7 8 9 9 9 9 7 4 3 3 3 3 4 4 4 5 5 6 6 7 8 8 9 10 10 10 11 12 12 11 11 13 14 14 13 13 13 13 13 13 14 14 14 15 16 17 18 19 21 22 23 24 26 27 28 29 30 30 31 32 32 32 33 33 33 34 34 34 35 35 34 35 35 35 35 36 36 36 37 38 39 39 40 41 42 43
4 5 7 9 10 10 10 9 6 4 3 3 3 3 4 5 6 6 6 7 7 8 8 9 10 10 11 11 12 12 13 12 11 12 13 13 13 12 12 12 12 12 13 13 15 16 18 19 21 22 24 25 26 27 28 29 30 30 31 31 31 32 33 33 33 33 33 33 34 34 35 35 34 35 35 35 35 35 36 36 37 38 39 40 41 42 43 44
4 6 8 9 10 9 9 7 4 3 3 4 4 4 5 6 7 7 8 8 9 9 9 10 11 12 12 12 12 13 13 13 12 11 11 11 11 11 10 11 12 13 14 16 18 19 21 22 24 25 26 27 28 29 30 30 30 30 31 32 32 32 33 33 33 33 34 34 34 34 35 35 34 34 34 34 35 35 36 36 37 38 39 40 41 42 43 45
5 6 8 9 9 9 8 6 4 3 4 5 5 6 7 8 8 9 9 10 9 10 11 11 12 12 12 12 13 13 13 13 12 11 10 9 9 9 10 12 14 16 17 19 21 22 24 25 26 27 28 29 29 30 30 30 30 31 31 32 32 32 33 33 33 33 33 33 33 34 34 34 34 33 33 34 34 35 36 37 37 38 39 40 41 42 42 43
6 7 8 9 9 9 7 5 4 4 5 6 7 8 9 9 9 9 10 10 10 11 11 12 12 12 12 13 13 13 12 11 10 9 9 9 10 11 13 15 18 19 21 23 24 25 26 27 28 29 29 29 29 29 30 30 31 31 31 32 32 32 32 32 32 32 32 32 32 33 33 33 33 33 33 34 34 35 36 36 37 38 38 39 39 39 40 40
7 8 9 10 10 8 5 5 5 6 6 7 8 9 9 10 10 10 10 10 11 11 11 11 11 12 13 13 12 12 11 10 9 9 9 11 13 14 16 18 21 23 24 25 26 27 28 28 29 29 29 29 29 29 30 30 30 31 30 30 30 30 30 30 31 31 31 31 31 32 32 32 33 33 33 34 34 35 35 36 36 36 36 36 36 36 37 37
8 9 10 10 9 7 4 4 6 7 7 8 9 9 9 10 10 10 11 11 11 11 10 10 11 12 12 11 11 10 10 9 9 10 12 14 16 18 20 21 23 25 26 27 27 28 29 29 28 28 28 29 29 29 29 29 29 29 29 29 29 29 29 29 29 30 30 30 30 30 31 31 32 33 33 33 33 33 34 34 34 34 34 34 34 34 34 34
9 10 10 9 8 6 4 4 6 7 8 9 9 10 10 10 10 11 11 11 10 10 10 11 12 12 11 10 10 9 9 10 11 13 15 17 19 21 22 24 25 26 27 28 28 29 29 28 28 28 28 28 28 28 28 28 28 28 28 28 28 27 28 28 28 28 28 28 28 29 29 30 31 31 31 31 31 31 31 31 31 31 31 31 31 31 32 32
10 10 9 8 7 5 4 5 6 7 8 9 10 10 10 11 11 11 11 10 10 10 11 11 11 10 10 10 9 8 10 13 14 16 18 21 22 24 25 26 27 28 28 29 28 28 28 28 28 28 28 28 27 27 26 26 26 26 26 26 26 26 26 26 26 27 27 27 27 27 27 28 29 29 29 29 29 29 29 29 29 29 29 29 29 29 30 30
11 10 9 8 6 5 5 5 6 8 9 9 10 10 10 11 11 10 10 10 10 11 11 10 9 9 10 10 8 9 13 15 17 19 21 23 25 26 27 27 28 28 28 28 28 28 28 27 27 27 26 26 26 25 25 25 25 25 25 25 25 24 25 24 25 25 26 26 26 26 25 26 27 27 27 27 27 27 27 27 27 27 28 28 28 28 28 28
11 10 9 7 5 5 5 6 6 7 9 10 10 11 11 10 9 9 9 10 10 10 9 9 8 9 10 9 9 13 17 18 20 22 23 25 26 27 27 27 28 28 28 27 27 27 26 26 26 26 25 25 25 25 24 24 23 23 23 23 23 23 23 23 24 24 24 25 25 25 24 25 25 24 25 25 25 25 25 26 26 26 27 27 27 27 27 27
11 10 8 6 6 6 6 7 7 8 9 10 11 11 10 9 8 9 9 9 9 9 8 8 8 10 10 11 14 17 20 21 22 24 25 26 27 27 27 27 27 27 26 26 26 25 25 24 24 24 24 24 24 23 23 22 22 22 21 22 22 22 22 23 23 22 23 23 24 24 23 23 24 23 23 24 24 24 25 25 26 26 26 26 26 26 26 26
11 10 8 6 6 7 7 7 8 9 10 11 11 10 8 8 8 8 8 8 8 7 7 8 11 12 13 15 17 19 21 23 24 26 26 27 27 27 27 26 26 26 25 25 25 24 24 23 23 23 22 22 21 21 21 21 21 20 20 21 21 21 22 22 22 22 22 23 23 24 23 23 24 24 24 24 24 24 25 25 26 26 26 26 26 26 26 26
10 9 7 6 7 7 7 8 8 10 11 11 10 8 7 7 6 6 7 7 7 7 8 11 13 15 16 18 20 21 23 24 25 26 26 26 26 26 26 25 25 25 25 25 24 23 23 22 21 21 21 20 20 19 19 19 19 20 20 20 21 21 21 22 22 22 22 23 22 23 23 23 24 24 24 24 24 25 25 25 25 26 26 26 26 27 27 28
9 8 7 7 7 8 8 8 9 10 10 9 8 7 7 6 5 5 6 7 7 8 11 13 15 17 18 20 22 24 25 25 26 25 25 25 25 25 25 25 25 25 25 24 23 22 21 20 20 19 19 19 19 18 18 19 19 20 20 20 21 21 21 22 22 22 22 23 22 22 23 23 23 24 24 24 25 25 25 25 25 25 26 26 27 28 28 29
8 7 6 7 8 8 9 9 9 10 9 7 6 6 5 4 5 5 6 7 9 11 13 16 17 18 20 22 24 24 25 25 25 25 25 25 25 26 26 26 26 25 24 23 22 21 20 19 18 18 18 18 18 18 18 19 20 20 21 21 21 21 22 22 22 22 22 23 22 23 23 23 23 23 24 24 25 26 26 26 26 26 27 27 28 29 29 30
7 7 7 7 8 9 9 9 9 8 7 6 5 4 4 4 5 6 7 9 12 14 16 17 19 20 22 23 24 24 24 24 25 25 25 26 26 26 26 26 25 24 23 21 20 19 19 18 18 17 17 18 18 18 18 19 20 20 21 21 21 21 22 22 22 22 23 23 23 23 24 24 24 25 26 27 26 26 27 28 29 29 29 29 29 30 32 32
7 7 7 7 8 9 9 8 8 7 6 4 3 3 4 4 5 7 9 11 13 16 17 19 20 22 24 24 24 24 24 24 25 25 26 26 26 26 25 24 22 21 20 20 19 18 18 17 17 16 17 17 17 18 18 19 19 20 20 21 21 21 21 22 23 23 24 24 25 25 25 25 25 26 29 30 29 28 28 29 31 32 32 32 32 32 33 33
6 7 7 8 9 9 8 7 6 5 4 2 2 3 4 5 7 9 11 13 15 17 18 20 22 23 24 24 24 24 24 25 25 25 26 25 25 24 23 22 21 19 18 18 18 17 17 17 17 17 17 17 17 18 18 19 20 20 21 22 22 22 23 23 23 24 25 26 26 27 27 25 25 26 29 31 31 30 29 30 31 33 35 36 35 35 34 35
6 7 7 8 9 8 6 5 4 3 1 1 2 3 5 7 9 11 12 14 16 18 20 21 22 23 23 23 24 24 25 25 25 24 23 22 22 22 21 21 20 18 17 17 17 17 17 17 18 18 18 18 19 19 19 19 20 21 22 23 23 24 24 24 25 25 26 28 28 29 30 28 26 27 29 31 31 31 30 30 31 33 35 37 38 39 39 38
7 7 8 8 7 6 4 4 2 1 0 1 2 4 6 9 10 12 13 15 17 19 20 22 22 23 23 23 24 24 24 23 22 21 21 21 21 22 21 20 19 18 17 17 17 18 18 18 19 19 19 20 20 20 21 21 21 22 23 25 25 26 26 28 29 28 28 28 28 31 32 31 29 28 31 32 31 32 33 32 33 34 36 38 39 41 41 41
7 8 7 7 5 4 4 3 2 1 1 2 3 6 8 10 11 13 15 17 18 20 21 21 22 23 23 24 24 23 23 21 20 21 22 22 21 21 21 20 20 20 19 18 19 20 20 20 21 21 22 22 22 22 23 23 23 24 25 26 27 28 29 30 32 32 33 31 29 30 32 32 30 27 30 32 31 34 37 37 38 39 39 40 41 42 43 43
8 7 6 5 4 3 3 2 2 1 1 2 5 7 9 10 12 14 16 17 18 20 21 21 22 22 23 23 23 22 21 20 20 22 23 22 21 20 20 20 20 21 20 20 20 21 21 22 22 23 23 24 24 24 25 25 25 26 26 27 28 29 30 32 33 34 35 35 32 31 31 30 28 22 24 31 33 35 39 40 41 42 43 44 44 44 45 45
7 5 5 4 4 4 3 3 2 0 2 3 6 8 9 11 13 15 17 18 19 20 21 21 22 22 22 22 22 21 20 20 21 22 22 21 21 20 21 21 21 21 22 22 22 22 22 23 23 24 24 24 25 25 26 27 28 28 28 29 30 31 31 33 35 35 37 38 36 33 30 28 24 20 22 29 34 36 39 40 42 44 46 47 46 45 46 46
5 5 5 5 4 4 3 3 1 1 3 5 6 8 10 12 14 16 17 18 19 20 21 21 22 22 21 21 21 21 21 21 22 22 21 21 21 21 21 22 22 23 23 23 23 23 23 23 24 25 25 25 26 27 27 28 29 30 30 31 32 33 33 34 36 37 39 41 39 36 31 24 19 23 27 31 35 38 40 41 43 45 47 48 47 46 46 47
5 5 5 5 5 4 3 2 0 2 4 5 7 9 11 13 15 16 17 18 19 19 20 21 21 21 21 21 21 21 21 22 23 23 22 22 22 22 23 23 23 24 24 24 24 24 25 25 26 26 26 27 27 27 28 29 30 31 32 32 32 34 35 35 36 36 39 42 41 40 34 22 17 26 31 34 37 39 40 42 43 45 46 47 48 47 48 48
6 6 6 6 5 4 3 1 1 3 4 5 7 10 11 13 15 16 16 17 18 19 20 20 20 20 20 21 21 22 22 23 24 24 24 24 24 24 24 25 25 25 25 26 26 26 26 27 27 28 29 29 29 29 29 30 31 32 32 33 33 34 35 36 36 36 38 41 42 43 36 24 21 31 33 35 38 39 42 43 43 44 45 46 48 48 49 49
7 6 6 6 5 4 2 1 2 3 4 6 8 10 12 14 15 15 16 17 17 18 19 19 20 20 21 21 22 23 24 24 25 25 25 26 26 26 26 26 27 27 27 27 28 28 28 28 28 29 30 31 31 31 31 31 31 32 32 33 33 34 35 37 38 36 38 39 40 44 39 27 26 34 34 36 39 40 42 42 42 43 45 46 48 49 49 49
7 6 6 5 4 3 2 2 3 3 5 7 9 11 12 14 14 15 16 16 17 17 18 19 19 20 21 22 23 24 24 25 26 26 27 27 27 27 28 28 28 28 29 29 29 30 30 30 29 29 30 32 32 33 33 32 31 32 33 33 34 34 35 38 40 39 39 38 38 43 41 31 30 36 36 37 41 41 41 41 42 44 45 47 49 50 51 51
7 6 5 5 4 2 1 3 3 3 6 8 9 11 12 13 14 14 15 15 16 17 17 19 20 21 22 23 24 25 25 25 26 27 27 28 28 29 29 29 29 30 30 30 31 31 31 32 31 30 30 31 32 33 34 33 32 32 33 34 34 35 36 39 40 40 40 38 38 43 43 37 35 36 38 40 43 42 41 42 43 45 47 48 50 51 53 54
8 7 5 4 3 2 2 2 2 4 6 8 9 11 12 12 13 13 14 14 15 16 17 19 20 21 23 24 25 26 26 27 27 28 28 28 29 30 30 30 31 31 32 32 32 33 33 34 34 34 33 33 33 34 35 35 34 34 34 35 35 36 38 40 42 43 42 39 40 43 43 41 39 37 39 44 45 44 44 44 45 47 48 50 51 52 54 55
8 6 5 4 3 2 2 1 3 5 7 8 10 11 11 12 12 13 13 14 15 16 17 19 21 22 23 24 25 26 27 28 28 29 29 29 30 30 31 31 32 32 33 33 34 34 34 34 36 37 37 38 38 38 38 38 37 36 36 36 36 37 38 40 43 45 45 43 42 41 43 44 41 38 42 47 47 46 46 47 48 48 49 51 52 53 54 55
7 6 4 4 4 3 1 2 4 5 7 8 9 10 11 11 12 12 13 14 15 16 18 19 21 22 23 24 25 26 27 28 29 30 30 30 31 31 32 32 33 33 34 35 35 36 35 34 35 36 37 38 39 39 40 40 39 39 38 38 38 38 38 40 43 45 46 47 44 40 43 47 43 40 44 48 48 49 49 49 50 51 51 53 54 54 54 56
7 5 4 4 4 2 0 2 4 5 7 8 9 9 10 11 11 12 13 14 15 17 18 20 21 22 23 24 26 27 27 28 29 30 31 31 32 32 33 34 34 35 35 36 37 38 37 36 36 37 36 37 38 40 41 42 41 40 40 39 38 38 39 40 43 45 47 49 46 42 45 49 46 44 47 48 48 50 51 51 52 52 53 54 55 55 56 57
6 5 4 4 3 1 1 3 4 5 7 8 8 9 10 11 12 12 13 15 16 17 19 20 22 23 24 25 26 27 28 29 30 31 32 32 33 33 34 35 35 36 36 37 38 39 40 39 39 40 38 37 38 40 42 43 42 42 42 40 39 39 40 40 43 45 47 50 48 45 47 49 47 47 48 49 50 51 52 53 53 53 54 55 56 56 57 58
6 5 4 4 3 2 2 4 5 5 6 7 8 9 10 11 12 13 14 16 17 18 20 21 23 24 26 26 27 28 30 30 31 32 33 33 34 34 35 35 36 37 37 38 39 41 42 42 42 43 42 39 39 41 42 44 44 43 41 40 41 41 41 41 44 45 48 51 50 48 49 49 48 49 50 50 51 53 54 55 54 54 55 56 57 57 58 59
6 5 5 4 3 3 3 4 4 6 6 7 8 9 11 12 13 15 16 17 18 20 21 23 24 25 27 28 28 30 31 31 32 33 34 34 35 35 36 36 37 38 38 39 40 41 43 45 44 46 46 43 41 42 44 45 45 43 41 41 42 42 42 43 44 46 49 52 51 51 52 51 48 50 52 52 53 55 56 57 56 56 57 58 59 59 59 60
7 7 5 4 4 3 4 4 5 6 7 7 9 10 12 13 15 16 17 19 20 21 22 24 25 27 28 29 30 31 32 33 33 34 35 36 36 36 37 37 38 39 39 40 42 42 45 46 46 48 50 47 44 46 47 47 47 45 43 43 42 43 44 44 45 47 50 52 52 53 54 53 51 52 53 54 55 57 58 59 59 58 59 61 62 61 61 62
7 6 5 5 5 4 4 5 6 7 7 9 10 11 13 15 16 18 19 20 22 23 24 26 27 29 30 30 31 33 34 34 35 35 36 37 37 37 38 38 39 40 41 42 43 44 46 47 48 51 53 50 48 49 50 50 49 46 45 44 44 45 46 47 48 49 49 51 53 54 54 54 54 55 55 56 57 59 61 62 62 62 62 64 64 64 64 64
Wind_Direction
153 150 147 146 147 148 146 140 135 135 139 145 149 157 172 190 207 226 245 257 263 268 269 272 273 274 273 272 273 273 275 277 278 279 277 275 272 271 272 272 273 272 270 268 268 269 268 268 270 270 271 271 271 271 272 273 274 275 275 275 275 273 272 272 273 274 274 275 275 276 277 278 278 278 278 278 278 278 278 278 279 279 278 278 278 278 277 276
134 133 132 134 136 135 129 122 120 123 127 133 144 167 194 214 233 250 258 260 263 266 266 269 270 272 273 275 277 278 279 280 279 280 279 277 275 274 274 275 274 273 271 270 269 270 271 273 275 276 277 278 277 277 277 278 278 278 278 277 276 274 273 274 275 276 277 276 276 275 275 276 276 276 276 277 278 278 278 279 279 279 279 279 278 278 277 277
118 119 119 122 125 124 116 108 105 103 101 98 89 17 286 274 269 268 268 268 269 269 270 271 273 275 277 280 281 282 282 281 280 280 280 280 280 280 279 277 275 274 273 272 272 273 275 277 278 279 280 280 281 281 280 281 280 280 280 279 278 277 277 277 278 278 278 278 277 277 276 276 276 276 277 277 277 278 278 278 278 278 279 278 278 278 277 277
108 108 109 110 110 107 101 96 92 85 74 54 26 349 317 296 284 279 276 274 276 278 280 280 281 282 282 283 283 283 283 281 281 282 283 284 285 285 282 277 275 275 275 275 276 276 277 278 279 280 280 281 281 281 282 282 281 280 280 280 279 278 278 277 277 278 278 278 279 279 279 279 279 279 280 280 279 279 279 279 279 279 279 279 278 278 278 278
101 99 97 94 90 86 82 77 73 64 49 26 2 336 314 297 286 281 278 278 280 282 284 285 284 284 284 285 286 286 284 283 286 290 291 291 292 288 282 279 278 278 278 278 278 278 278 279 279 280 281 281 281 281 282 282 281 281 280 280 280 279 278 278 278 278 279 280 281 281 282 282 282 282 282 282 281 281 281 280 280 279 279 279 279 279 279 279
92 89 85 79 73 66 61 57 51 42 27 7 344 323 307 298 289 285 282 281 282 283 284 285 286 288 289 292 294 294 294 294 297 299 298 298 297 290 286 284 283 283 281 280 280 280 280 280 280 280 281 281 281 282 282 282 281 281 281 281 281 280 280 280 280 280 281 281 282 283 283 284 284 283 283 282 282 282 282 281 280 280 280 280 280 280 280 280
85 80 75 68 60 52 46 43 39 30 16 353 329 311 301 297 293 289 287 285 284 285 286 289 292 295 297 301 303 304 304 303 300 298 300 300 296 292 291 290 288 285 283 282 281 281 281 281 281 281 281 281 282 282 282 282 282 283 283 282 283 283 283 283 283 283 283 284 284 285 285 285 285 285 284 284 284 284 283 282 281 281 281 281 281 281 281 281
80 72 65 57 48 39 30 25 20 10 356 337 318 304 298 294 289 282 278 277 277 279 283 287 291 294 298 301 302 302 303 299 295 296 300 298 295 296 296 294 292 289 287 285 284 283 283 283 283 283 283 283 283 283 284 285 285 286 286 285 285 286 286 286 286 286 286 287 287 287 288 288 288 288 288 288 287 286 285 285 284 284 284 283 283 283 283 283
74 65 57 48 37 25 16 10 3 355 344 333 323 318 316 316 308 292 282 283 284 284 288 292 297 300 302 303 302 303 303 298 295 299 301 298 297 298 299 298 297 295 293 291 290 290 290 290 289 289 289 288 287 287 288 288 289 289 289 290 289 289 289 289 289 289 289 289 289 289 289 289 290 290 290 290 290 289 289 288 288 287 287 287 286 286 286 286
71 62 54 41 27 16 9 3 356 350 342 338 340 343 343 348 355 357 347 335 322 311 307 309 310 310 310 307 306 306 305 300 298 302 303 300 300 300 300 300 298 298 298 296 296 296 296 295 295 293 292 292 291 291 292 292 292 293 293 294 294 293 293 293 293 293 292 291 291 290 290 290 291 291 291 291 290 290 290 289 289 289 289 289 288 288 288 287
67 59 47 30 19 10 4 359 353 347 343 348 356 358 359 2 4 357 344 334 326 317 315 317 315 312 308 305 304 305 305 302 300 303 305 304 304 305 304 301 298 298 299 299 300 299 297 297 296 295 294 294 294 294 295 296 295 295 296 295 296 296 295 295 295 294 293 293 292 292 291 292 292 292 291 291 291 290 290 291 291 291 290 290 290 290 289 289
61 52 37 23 11 3 359 352 347 345 350 3 8 8 10 7 358 348 340 333 326 319 318 316 311 306 302 302 303 305 307 305 303 305 307 307 307 307 305 304 303 302 303 304 303 301 300 300 299 298 298 297 297 298 298 299 299 299 298 298 297 297 296 296 296 295 295 294 294 293 292 293 293 292 292 292 291 292 292 292 292 292 292 292 292 292 291 291
52 39 27 17 4 356 352 346 346 352 6 14 10 7 3 358 349 342 336 328 321 319 317 313 309 306 306 309 309 308 311 309 307 309 310 310 309 307 305 305 305 306 306 306 306 306 306 305 304 304 303 302 301 300 300 300 300 300 299 298 298 298 297 297 296 295 295 295 294 294 293 294 294 293 293 293 293 293 294 294 294 294 294 293 293 293 293 292
33 22 16 8 357 354 351 347 350 1 8 6 3 354 347 345 342 336 327 322 322 322 320 316 314 313 313 315 315 314 313 312 310 309 310 312 312 309 308 308 309 309 308 308 308 309 309 307 306 306 305 304 303 301 301 300 300 299 299 298 298 297 297 296 296 295 295 294 294 294 294 294 294 294 294 294 294 295 295 295 294 294 293 293 293 293 292 292
11 6 5 359 354 353 350 347 350 356 355 349 346 337 333 338 335 329 326 327 329 328 324 320 318 317 319 319 318 315 313 313 311 308 309 310 312 313 313 314 314 313 310 308 309 309 309 307 306 306 305 304 303 302 301 300 300 299 299 298 298 298 298 297 297 296 296 296 296 295 295 295 295 294 295 295 295 295 294 294 293 293 292 292 292 292 292 291
356 356 357 353 350 349 346 344 343 341 337 332 328 327 331 334 330 329 331 331 332 329 324 322 321 320 321 320 317 314 312 313 312 310 311 311 314 316 319 321 319 316 312 310 309 309 309 308 307 306 305 303 302 302 301 301 301 300 300 300 300 299 299 298 298 298 297 297 296 296 296 295 295 295 295 295 295 295 293 293 293 293 293 293 293 292 292 292
346 347 348 347 345 346 344 339 333 330 330 325 323 328 332 332 330 331 330 330 329 326 323 322 321 320 321 319 316 314 312 313 314 317 319 319 320 318 319 319 316 314 314 312 310 309 308 307 307 306 305 304 303 303 302 302 301 301 301 300 300 299 299 299 298 298 297 297 297 296 296 296 296 296 296 296 295 294 294 294 294 294 294 294 294 294 293 293
336 338 342 344 343 345 343 333 323 324 325 323 324 329 331 330 330 330 327 326 325 323 321 321 319 319 319 316 315 313 313 316 319 322 323 324 323 319 316 314 313 314 314 312 310 308 307 306 306 305 305 304 303 303 302 302 302 301 301 300 300 300 299 299 299 298 298 297 297 297 297 298 297 297 297 296 296 296 296 296 296 296 296 296 296 296 296 296
329 334 339 341 339 341 340 325 318 320 321 322 326 328 328 327 326 324 323 322 322 321 321 320 318 319 318 316 316 316 317 320 323 327 326 324 322 318 315 313 313 312 311 309 308 307 306 306 306 305 304 304 303 303 303 302 302 302 302 301 301 300 300 299 299 298 298 298 298 299 299 299 299 298 298 298 298 298 298 297 297 297 297 297 298 298 298 298
323 329 332 334 335 335 331 319 316 317 318 322 325 325 324 323 322 320 320 320 320 319 321 321 319 319 318 318 320 320 321 321 323 324 322 320 319 315 313 312 311 310 309 308 308 308 307 307 306 305 305 305 305 305 304 304 303 303 302 301 300 299 299 298 298 298 298 299 299 299 300 299 298 298 299 299 299 299 298 298 298 299 299 299 300 300 300 301
315 321 324 329 332 326 317 312 312 311 315 320 321 320 319 319 319 318 319 320 318 319 321 320 320 320 320 321 322 324 324 322 319 317 316 316 316 314 312 312 311 311 310 310 309 309 309 308 307 307 307 307 306 306 305 303 302 300 300 299 298 299 298 298 298 298 298 298 299 299 299 299 298 299 300 300 300 300 300 300 301 301 302 302 303 303 303 303
308 314 318 325 326 312 302 305 308 309 313 317 316 315 316 316 318 318 319 320 319 320 321 320 322 323 321 320 322 324 322 319 317 314 314 315 315 314 314 313 312 312 312 312 311 311 311 310 309 309 308 307 306 304 302 301 300 299 299 299 299 299 298 298 298 299 299 299 300 300 301 300 300 301 301 301 301 302 303 303 304 305 306 306 306 306 306 306
305 310 315 321 315 298 296 300 301 305 310 314 314 314 315 317 318 319 319 321 321 322 322 324 327 327 322 318 319 321 318 317 315 313 314 315 315 315 315 314 314 314 314 313 313 312 311 311 310 308 307 305 303 302 301 301 301 300 300 300 300 299 300 300 301 302 303 303 303 303 304 303 303 304 304 304 305 306 306 307 308 309 309 309 309 309 310 310
305 308 312 313 302 290 293 297 299 307 313 314 314 315 316 317 318 320 320 321 323 324 324 326 328 328 323 316 317 319 319 318 316 314 316 316 316 317 316 316 316 315 315 314 313 312 312 311 310 308 306 305 304 304 303 303 302 302 302 302 303 304 304 305 306 306 307 307 307 307 308 306 306 308 308 308 309 309 310 311 311 311 311 310 311 311 311 311
305 306 307 303 291 288 293 298 305 316 318 314 315 316 316 317 320 323 325 326 328 326 326 328 328 327 322 316 318 320 319 319 318 318 319 319 319 319 318 317 317 316 314 314 313 313 312 311 310 309 308 307 307 307 306 306 306 306 306 307 307 308 309 309 310 311 311 311 311 311 312 311 311 312 312 311 312 312 313 313 313 312 311 311 311 311 312 312
304 302 298 289 285 289 294 301 312 320 317 314 315 315 316 321 326 330 329 331 332 328 328 330 328 325 322 319 320 320 320 321 322 322 321 320 319 319 318 318 317 316 316 316 316 316 315 314 313 312 311 310 310 310 309 309 310 310 311 311 312 313 313 314 315 316 316 316 316 315 316 316 316 316 314 313 314 314 314 313 312 312 311 311 312 312 312 312
300 294 285 281 283 289 296 303 314 318 314 313 313 313 319 325 333 338 334 333 335 332 330 328 326 325 323 322 322 323 323 324 323 322 321 321 321 321 320 320 319 319 319 319 319 319 318 317 317 315 314 313 314 314 314 314 315 316 317 317 318 318 317 318 319 319 319 318 318 317 317 318 317 316 315 314 314 314 314 313 312 312 312 312 312 312 311 311
292 282 273 279 285 290 299 307 315 315 311 311 311 315 324 331 340 342 335 333 332 330 328 326 326 325 325 325 326 326 325 324 324 324 324 324 324 323 322 321 322 322 322 321 321 322 322 321 321 320 320 320 320 321 322 322 321 321 321 321 320 320 320 320 320 320 319 318 318 317 316 317 317 317 316 315 315 316 315 314 313 313 312 312 312 312 311 311
281 269 269 280 286 293 302 309 313 311 307 307 311 320 329 339 345 339 332 332 330 329 328 326 327 327 328 328 328 327 326 326 327 327 327 326 325 324 324 325 325 324 324 325 326 328 328 328 328 328 327 327 327 328 327 326 324 323 323 322 322 322 321 320 320 320 319 319 319 319 318 319 321 319 317 317 318 318 317 315 314 313 312 312 313 314 314 313
266 263 271 281 287 295 304 309 310 306 303 306 314 328 336 341 344 335 329 331 330 329 329 328 329 329 330 330 329 329 330 330 331 330 328 328 327 327 326 326 326 326 328 332 334 336 336 335 335 334 333 333 332 331 331 328 326 325 324 323 324 323 322 321 322 323 322 322 323 323 324 325 326 323 319 318 318 318 317 316 315 314 313 313 315 316 316 316
257 266 276 282 289 297 303 305 303 299 300 306 322 347 346 339 340 335 329 331 331 330 331 331 331 331 332 332 333 334 334 333 332 331 330 330 329 328 329 330 333 337 340 343 346 347 346 345 345 343 340 339 337 335 334 331 329 328 327 326 326 326 326 328 328 328 326 325 326 326 327 328 327 324 319 317 316 316 316 316 315 315 314 315 316 316 316 315
258 271 278 285 291 297 300 299 294 293 297 312 345 355 345 335 335 333 330 331 332 332 333 333 334 335 336 337 337 337 336 335 334 334 334 333 333 335 338 342 347 350 351 353 356 358 357 354 354 353 349 346 344 340 338 337 335 333 332 332 331 330 331 331 329 329 327 326 327 326 326 327 328 322 315 313 314 315 315 315 314 314 314 315 316 316 316 315
262 272 279 286 290 294 293 285 283 285 300 342 353 347 341 336 334 333 331 333 334 335 336 336 337 339 340 340 339 339 338 337 337 338 341 342 345 348 351 352 354 357 359 360 360 1 2 359 357 356 353 349 347 343 340 340 338 335 334 333 331 330 330 328 326 326 325 324 327 326 324 329 331 322 313 312 314 314 314 314 313 313 313 314 315 315 316 316
264 272 280 282 282 282 274 265 262 256 3 9 353 344 338 335 335 334 334 336 337 338 339 341 342 343 343 342 341 341 341 342 344 349 355 357 357 358 357 356 357 360 2 1 359 0 0 357 353 353 351 348 345 341 339 338 336 334 331 329 328 328 327 325 323 323 322 321 325 325 324 330 334 324 314 314 315 314 314 314 313 311 310 311 312 314 315 316
266 274 276 272 267 259 247 235 212 167 31 4 348 342 336 335 338 338 337 339 340 342 344 346 346 345 344 344 344 345 347 349 356 5 8 5 1 1 359 360 1 1 2 1 359 358 356 353 350 349 347 344 342 339 337 336 334 331 329 327 327 326 325 323 321 321 320 318 322 323 323 330 334 326 316 315 316 316 315 315 315 312 311 311 312 314 315 316
267 270 262 251 243 232 220 201 173 141 11 352 341 340 338 338 341 341 340 342 345 347 348 349 348 347 347 347 349 351 353 358 9 15 12 7 4 3 2 4 4 2 4 1 358 356 352 349 348 346 344 341 339 337 335 333 331 329 327 326 325 324 323 321 319 319 318 316 319 320 323 331 336 329 318 315 316 314 312 313 313 312 312 313 315 316 317 316
260 250 236 226 219 207 196 185 169 126 346 340 337 339 341 342 344 344 344 347 349 351 352 351 351 351 351 352 354 357 359 5 15 18 14 8 5 4 4 5 3 1 2 359 356 353 348 347 345 342 340 338 335 333 331 330 328 327 326 325 323 321 321 319 318 318 316 315 318 320 326 335 335 326 319 314 311 309 310 312 312 311 312 314 316 317 315 314
239 222 212 206 203 194 184 180 167 345 332 333 337 342 343 344 345 347 349 351 353 354 354 354 355 355 356 356 358 1 2 6 12 15 13 8 4 1 1 1 359 358 356 353 353 350 345 344 341 336 336 335 333 330 327 327 326 325 325 324 322 321 320 319 317 318 317 316 319 322 330 342 333 318 315 310 308 310 311 312 311 312 315 316 316 315 313 313
212 204 200 195 195 190 181 176 171 334 330 332 340 345 345 345 348 351 353 355 356 357 357 358 359 359 360 360 0 2 3 6 8 9 8 6 3 359 357 357 356 354 352 350 350 347 344 342 339 336 335 333 331 328 326 327 325 324 325 324 322 320 319 318 317 318 317 317 320 322 330 350 336 311 311 311 313 314 312 312 314 316 316 315 315 315 314 314
195 193 191 189 191 188 182 188 301 323 331 339 345 347 347 348 352 354 356 358 359 0 1 3 4 4 5 5 5 6 6 7 7 6 6 4 3 0 357 356 355 354 352 350 349 348 346 344 342 341 338 336 334 331 329 329 327 327 327 324 323 320 318 316 315 317 316 317 321 320 326 352 338 313 315 319 317 314 312 315 318 317 315 315 315 315 315 315
185 185 187 189 191 194 198 255 305 319 339 350 350 349 350 352 354 357 359 1 3 5 7 9 11 11 11 11 11 11 10 10 9 7 6 5 3 2 360 358 357 355 353 352 350 349 347 345 345 344 341 338 337 334 333 332 331 331 329 326 324 322 320 316 315 317 316 318 322 316 319 345 339 319 323 323 315 314 316 319 319 316 315 315 315 316 315 315
179 182 186 188 193 204 226 276 295 323 354 356 351 351 353 355 357 358 1 4 7 10 11 13 13 13 13 12 12 11 10 10 9 7 6 4 3 2 0 359 357 356 354 353 351 349 347 345 344 345 342 339 336 334 333 332 332 332 330 327 325 322 319 315 314 317 317 320 323 313 314 335 336 324 326 321 314 316 319 320 317 315 316 315 315 315 315 314
177 179 183 185 190 201 246 278 294 341 1 355 350 354 356 356 358 0 3 6 9 10 12 12 12 11 10 10 9 9 8 7 6 5 3 2 0 360 358 357 356 354 353 352 351 350 349 346 344 345 345 340 336 333 330 330 331 330 329 326 324 321 317 314 313 314 316 321 320 311 313 325 328 326 325 317 315 319 321 319 317 315 316 315 314 314 314 313
178 180 185 189 192 202 242 280 327 357 358 352 352 357 356 356 358 1 4 6 7 9 10 10 9 9 8 7 6 6 5 4 3 1 0 359 357 356 355 354 352 351 350 350 350 349 350 348 344 345 345 341 338 335 331 330 330 328 327 325 323 320 316 314 313 312 315 319 315 311 315 318 321 326 323 315 316 321 320 319 317 316 316 314 313 312 311 310
182 185 189 195 199 209 232 309 351 356 353 352 355 356 355 355 358 0 3 4 6 8 8 7 7 7 5 5 3 2 1 1 360 359 357 355 354 352 351 350 349 347 346 346 345 345 347 347 344 344 346 343 341 338 333 332 331 328 326 324 321 319 315 313 312 312 314 315 314 316 317 313 317 325 319 314 317 319 318 317 316 316 315 313 311 310 309 308
186 185 196 212 213 208 216 347 349 350 351 353 355 354 353 355 356 358 1 2 3 4 4 3 3 3 2 1 359 358 358 356 356 355 354 352 351 349 347 347 346 345 343 342 341 340 342 344 341 341 344 343 340 337 333 332 332 329 327 325 321 316 312 311 310 310 312 312 316 323 318 312 318 322 315 314 317 317 317 317 316 316 315 312 311 310 308 307
188 185 206 225 221 206 11 343 341 348 350 351 353 351 351 352 354 356 358 357 358 359 358 358 358 357 357 356 355 354 354 352 352 351 350 349 348 347 345 344 344 343 341 340 339 337 338 340 337 336 339 340 337 334 332 332 332 330 329 327 321 313 310 309 308 308 308 309 318 325 317 313 320 321 315 316 317 316 317 318 317 316 315 312 311 310 308 307
190 189 208 225 223 214 303 328 338 346 345 346 349 348 348 348 349 351 352 351 353 354 353 352 353 352 351 350 350 350 350 349 348 347 347 346 345 345 344 342 342 341 339 338 338 336 335 336 334 332 335 338 335 332 331 331 331 333 333 329 321 315 312 308 304 304 304 308 317 321 315 316 322 320 316 317 317 316 317 317 317 318 317 314 312 310 309 308
192 198 216 230 237 257 297 319 334 340 339 341 344 344 344 343 344 345 346 346 348 349 348 348 348 348 347 346 346 346 346 345 344 344 344 343 342 342 341 340 339 339 338 337 336 334 333 333 332 329 332 335 332 329 329 328 330 335 336 330 323 319 313 306 303 302 303 308 315 315 314 319 322 318 317 318 317 316 316 316 318 320 319 315 312 311 310 310
195 203 219 238 249 274 300 315 327 330 331 334 337 338 338 338 340 341 342 344 344 345 345 345 344 344 344 343 342 342 342 341 340 340 340 340 339 339 338 338 337 337 336 335 334 333 331 331 331 328 329 333 331 326 326 326 329 336 336 331 325 320 313 307 304 303 303 308 312 312 313 320 321 317 317 318 317 315 315 316 318 321 320 316 313 313 313 312
205 212 228 251 259 274 295 311 321 321 323 328 332 333 333 335 337 338 339 341 342 341 341 341 341 341 340 340 339 339 339 338 337 337 337 336 337 336 336 336 335 335 334 333 332 332 330 330 329 326 327 331 330 326 324 325 329 335 336 331 325 318 313 310 307 305 304 307 309 310 313 318 318 316 317 317 316 315 315 316 319 321 319 316 315 315 315 313
217 226 242 262 268 272 293 310 314 313 318 325 328 329 330 332 334 336 337 338 338 338 337 337 337 337 337 337 336 335 335 335 334 334 334 333 333 334 333 333 332 332 332 331 330 330 329 328 328 325 326 329 329 325 323 324 329 334 335 330 323 317 314 312 310 308 307 308 309 310 313 316 315 314 316 316 316 316 316 318 320 320 318 316 316 316 315 314
Height
5802 5803 5804 5805 5806 5806 5807 5807 5807 5808 5809 5810 5810 5811 5811 5811 5811 5810 5810 5810 5810 5810 5810 5810 5810 5810 5810 5809 5809 5809 5809 5808 5808 5808 5807 5807 5806 5806 5806 5806 5806 5806 5805 5805 5804 5804 5804 5804 5804 5804 5803 5803 5802 5802 5802 5801 5801 5801 5800 5800 5800 5799 5797 5796 5795 5795 5795 5794 5794 5793 5793 5792 5791 5790 5789 5788 5788 5787 5786 5785 5784 5783 5782 5782 5781 5781 5780 5779
5802 5803 5804 5805 5806 5807 5807 5807 5808 5808 5809 5810 5810 5811 5811 5810 5810 5810 5810 5810 5809 5809 5809 5809 5809 5809 5808 5808 5808 5808 5807 5807 5806 5806 5805 5805 5805 5805 5805 5805 5804 5804 5804 5803 5803 5803 5802 5802 5802 5802 5801 5801 5800 5799 5799 5799 5799 5798 5798 5797 5797 5796 5795 5794 5793 5792 5791 5791 5791 5790 5790 5789 5788 5787 5786 5785 5784 5784 5782 5781 5780 5779 5779 5778 5777 5776 5775 5774
5803 5804 5805 5806 5807 5807 5808 5808 5808 5809 5809 5810 5810 5810 5810 5810 5810 5809 5809 5809 5809 5808 5808 5808 5808 5807 5807 5807 5807 5806 5806 5805 5805 5804 5803 5803 5803 5803 5803 5803 5802 5802 5802 5802 5802 5801 5801 5800 5800 5799 5799 5798 5798 5797 5796 5796 5796 5795 5795 5794 5794 5793 5792 5791 5790 5789 5788 5787 5787 5786 5786 5785 5785 5784 5783 5782 5781 5780 5779 5778 5777 5776 5775 5774 5773 5772 5771 5770
5804 5805 5806 5807 5807 5808 5808 5808 5808 5809 5809 5809 5809 5809 5809 5809 5809 5809 5808 5808 5808 5807 5807 5807 5806 5806 5806 5806 5805 5805 5805 5804 5803 5802 5802 5802 5802 5802 5801 5801 5800 5800 5800 5800 5800 5799 5799 5798 5798 5797 5797 5796 5795 5795 5794 5794 5793 5792 5792 5791 5791 5790 5789 5788 5787 5786 5785 5784 5783 5782 5782 5781 5781 5780 5779 5778 5777 5776 5775 5774 5773 5772 5771 5769 5768 5767 5766 5766
5804 5805 5806 5807 5808 5808 5808 5808 5808 5809 5809 5809 5809 5809 5809 5808 5808 5808 5807 5807 5807 5806 5806 5805 5805 5805 5804 5804 5804 5804 5803 5802 5802 5801 5801 5801 5800 5800 5799 5799 5798 5798 5798 5798 5798 5797 5797 5796 5796 5795 5794 5794 5793 5792 5792 5791 5790 5789 5789 5788 5787 5787 5786 5785 5784 5783 5782 5781 5780 5779 5778 5777 5777 5776 5775 5774 5773 5772 5771 5770 5769 5768 5766 5765 5764 5763 5762 5761
5805 5806 5807 5807 5808 5808 5808 5808 5808 5809 5809 5809 5809 5808 5808 5807 5807 5807 5806 5806 5806 5805 5805 5804 5804 5804 5804 5803 5803 5803 5802 5801 5801 5800 5800 5799 5799 5798 5798 5797 5797 5797 5797 5796 5796 5795 5795 5794 5793 5793 5792 5791 5790 5790 5789 5788 5788 5787 5786 5785 5784 5783 5783 5782 5781 5780 5778 5777 5776 5775 5775 5774 5773 5772 5771 5770 5769 5768 5767 5766 5764 5763 5762 5761 5760 5759 5757 5756
5805 5806 5807 5808 5808 5808 5808 5809 5809 5809 5809 5809 5808 5807 5807 5806 5806 5805 5805 5805 5805 5804 5804 5803 5803 5803 5803 5802 5802 5802 5801 5801 5800 5799 5799 5798 5797 5797 5796 5796 5796 5795 5795 5794 5794 5793 5792 5792 5791 5790 5790 5789 5788 5787 5787 5786 5785 5784 5783 5783 5781 5780 5779 5779 5778 5777 5775 5774 5773 5772 5771 5770 5769 5768 5767 5766 5765 5764 5763 5762 5760 5759 5758 5757 5756 5755 5753 5752
5806 5807 5807 5808 5809 5809 5809 5809 5809 5809 5809 5808 5808 5807 5806 5806 5805 5805 5805 5804 5804 5803 5803 5803 5802 5802 5802 5801 5801 5801 5800 5800 5798 5798 5798 5797 5796 5795 5795 5794 5794 5794 5793 5792 5792 5791 5790 5789 5789 5788 5787 5787 5786 5785 5784 5783 5782 5781 5780 5780 5779 5778 5776 5775 5774 5773 5772 5771 5770 5769 5767 5766 5765 5764 5763 5762 5761 5759 5758 5757 5756 5755 5754 5752 5751 5750 5749 5748
5806 5807 5808 5809 5809 5809 5809 5809 5809 5808 5808 5807 5806 5806 5805 5805 5805 5804 5804 5804 5803 5803 5802 5802 5802 5801 5801 5800 5800 5800 5799 5798 5797 5797 5797 5795 5794 5794 5793 5793 5792 5792 5791 5790 5789 5789 5788 5787 5787 5786 5785 5784 5784 5783 5782 5781 5780 5778 5777 5776 5775 5774 5773 5772 5771 5770 5769 5768 5767 5765 5764 5763 5761 5760 5759 5758 5756 5755 5754 5752 5751 5750 5749 5748 5747 5745 5744 5743
5807 5808 5809 5809 5809 5809 5809 5808 5808 5807 5806 5805 5805 5804 5804 5804 5804 5804 5803 5803 5803 5802 5802 5801 5801 5800 5800 5799 5799 5799 5798 5797 5796 5796 5795 5794 5793 5792 5792 5791 5790 5790 5789 5788 5787 5787 5786 5785 5785 5784 5783 5782 5781 5780 5779 5778 5777 5776 5774 5773 5772 5771 5770 5769 5768 5767 5766 5765 5763 5762 5761 5759 5758 5757 5755 5754 5752 5751 5749 5748 5747 5746 5744 5743 5742 5741 5740 5738
5807 5808 5808 5809 5808 5808 5808 5807 5807 5806 5805 5805 5804 5804 5804 5803 5803 5803 5803 5803 5802 5801 5801 5801 5800 5800 5799 5799 5798 5798 5797 5796 5795 5795 5794 5793 5792 5791 5790 5790 5789 5788 5787 5786 5786 5785 5784 5783 5783 5782 5781 5780 5778 5777 5776 5775 5774 5773 5772 5771 5769 5768 5767 5766 5765 5764 5762 5761 5760 5759 5757 5756 5755 5753 5752 5750 5749 5747 5745 5744 5742 5741 5740 5738 5737 5736 5735 5733
5807 5808 5808 5808 5808 5807 5807 5807 5806 5806 5805 5804 5804 5804 5803 5803 5803 5803 5803 5802 5801 5801 5800 5800 5800 5799 5799 5798 5797 5797 5796 5795 5793 5793 5793 5792 5791 5790 5789 5788 5787 5786 5785 5785 5784 5783 5782 5781 5780 5779 5778 5777 5776 5775 5774 5773 5771 5770 5769 5768 5767 5765 5764 5763 5762 5760 5759 5758 5756 5755 5753 5753 5751 5749 5748 5746 5744 5743 5741 5740 5738 5737 5735 5734 5732 5731 5729 5728
5807 5807 5808 5808 5808 5807 5807 5806 5806 5805 5804 5804 5804 5803 5803 5803 5803 5803 5802 5802 5801 5801 5800 5800 5799 5798 5798 5797 5796 5795 5795 5794 5792 5791 5791 5790 5790 5789 5787 5786 5785 5785 5784 5783 5782 5781 5780 5779 5778 5777 5776 5775 5774 5772 5771 5770 5769 5768 5766 5765 5764 5762 5761 5760 5758 5757 5755 5754 5752 5751 5749 5748 5747 5745 5743 5742 5740 5739 5737 5736 5734 5732 5731 5729 5727 5726 5724 5723
5807 5807 5808 5808 5807 5807 5806 5805 5805 5804 5804 5804 5804 5803 5803 5803 5803 5802 5802 5801 5801 5800 5799 5799 5798 5797 5796 5796 5795 5794 5793 5793 5792 5790 5789 5789 5788 5787 5786 5785 5784 5783 5782 5781 5781 5780 5779 5778 5777 5775 5774 5773 5771 5770 5769 5767 5766 5765 5763 5762 5760 5759 5757 5756 5755 5753 5752 5750 5749 5747 5745 5744 5743 5741 5740 5738 5736 5735 5733 5732 5730 5728 5726 5725 5723 5721 5719 5718
5807 5807 5807 5807 5806 5805 5805 5804 5804 5804 5804 5804 5804 5803 5803 5803 5802 5802 5801 5801 5800 5799 5798 5798 5797 5796 5795 5794 5794 5793 5792 5791 5791 5790 5788 5787 5786 5785 5785 5784 5783 5782 5781 5780 5779 5778 5777 5776 5775 5773 5772 5770 5769 5767 5766 5764 5763 5761 5760 5758 5757 5755 5753 5752 5751 5749 5748 5746 5745 5743 5741 5740 5739 5737 5736 5734 5732 5731 5729 5727 5726 5724 5722 5720 5719 5717 5715 5713
5806 5806 5806 5806 5805 5805 5805 5804 5804 5804 5804 5804 5803 5803 5803 5802 5802 5801 5800 5800 5799 5798 5797 5797 5796 5795 5794 5793 5792 5792 5791 5790 5789 5789 5788 5786 5785 5784 5783 5783 5782 5781 5780 5779 5778 5776 5775 5774 5772 5771 5769 5768 5766 5764 5763 5761 5760 5758 5756 5755 5753 5751 5750 5748 5747 5745 5743 5742 5740 5739 5737 5736 5734 5733 5731 5730 5728 5727 5725 5723 5721 5719 5718 5716 5714 5712 5710 5708
5806 5806 5806 5806 5805 5805 5804 5804 5804 5804 5803 5803 5803 5803 5802 5802 5801 5800 5799 5799 5798 5797 5796 5795 5794 5794 5793 5792 5791 5790 5789 5789 5788 5787 5786 5785 5784 5783 5782 5781 5781 5779 5778 5777 5776 5774 5773 5771 5770 5768 5766 5765 5763 5761 5760 5758 5756 5755 5753 5751 5750 5748 5746 5744 5743 5741 5740 5738 5736 5735 5733 5731 5730 5729 5727 5726 5724 5722 5720 5718 5717 5715 5713 5711 5709 5707 5705 5703
5806 5806 5805 5805 5805 5804 5803 5803 5803 5803 5803 5803 5802 5802 5801 5801 5800 5799 5799 5798 5797 5796 5795 5794 5793 5793 5792 5791 5790 5789 5788 5787 5786 5786 5785 5784 5783 5782 5781 5780 5779 5778 5776 5775 5773 5772 5770 5769 5767 5765 5763 5761 5760 5758 5756 5755 5753 5751 5750 5748 5746 5745 5743 5741 5739 5738 5736 5734 5732 5730 5729 5727 5725 5724 5723 5721 5719 5717 5716 5714 5712 5710 5708 5706 5704 5702 5700 5698
5805 5805 5805 5804 5804 5803 5803 5803 5802 5803 5802 5802 5802 5801 5801 5800 5799 5799 5798 5797 5796 5795 5794 5794 5793 5792 5791 5790 5789 5788 5787 5786 5785 5784 5784 5783 5782 5781 5780 5778 5777 5775 5774 5772 5771 5769 5768 5766 5764 5762 5760 5758 5757 5755 5753 5751 5750 5748 5746 5745 5743 5741 5739 5737 5735 5734 5732 5730 5729 5727 5725 5723 5721 5720 5718 5717 5715 5713 5711 5710 5708 5706 5704 5702 5700 5698 5696 5693
5805 5804 5804 5804 5803 5803 5803 5802 5802 5802 5802 5802 5801 5801 5800 5799 5799 5798 5797 5796 5795 5794 5793 5793 5792 5791 5790 5789 5788 5787 5786 5785 5784 5783 5782 5781 5780 5779 5778 5776 5775 5773 5772 5770 5768 5766 5764 5763 5761 5759 5757 5755 5754 5752 5750 5748 5746 5745 5743 5741 5739 5738 5736 5734 5732 5730 5729 5727 5725 5723 5722 5720 5718 5716 5714 5713 5711 5709 5707 5706 5704 5702 5700 5698 5696 5694 5692 5689
5804 5804 5804 5803 5803 5802 5802 5802 5802 5802 5801 5801 5801 5800 5800 5799 5798 5797 5796 5795 5794 5793 5792 5792 5791 5790 5789 5788 5787 5786 5785 5784 5783 5782 5781 5780 5779 5777 5776 5774 5772 5771 5769 5767 5765 5763 5761 5760 5758 5756 5754 5752 5751 5749 5747 5745 5743 5741 5740 5738 5736 5734 5733 5731 5729 5727 5726 5724 5722 5721 5719 5716 5714 5713 5711 5709 5707 5705 5704 5702 5700 5698 5696 5694 5692 5690 5688 5685
5804 5803 5803 5802 5802 5802 5802 5802 5801 5801 5801 5801 5800 5800 5799 5798 5797 5796 5795 5794 5793 5792 5791 5791 5790 5789 5788 5787 5786 5785 5784 5783 5782 5781 5780 5778 5777 5775 5773 5771 5770 5768 5766 5764 5762 5760 5758 5757 5755 5753 5751 5749 5747 5745 5744 5742 5740 5738 5736 5735 5733 5731 5730 5728 5726 5724 5723 5721 5719 5718 5716 5713 5711 5710 5708 5705 5704 5702 5700 5698 5696 5694 5692 5690 5688 5686 5684 5681
5803 5802 5802 5801 5801 5801 5801 5801 5801 5801 5800 5800 5799 5799 5798 5797 5796 5795 5794 5793 5792 5791 5790 5790 5789 5788 5787 5786 5785 5785 5784 5782 5781 5780 5778 5776 5774 5773 5771 5769 5767 5765 5763 5761 5759 5758 5756 5754 5752 5750 5748 5746 5744 5742 5740 5739 5737 5735 5733 5732 5730 5728 5727 5725 5723 5721 5719 5718 5716 5714 5712 5710 5708 5707 5704 5702 5701 5698 5696 5694 5692 5690 5688 5686 5684 5682 5680 5677
5801 5801 5801 5800 5800 5800 5800 5801 5801 5800 5800 5799 5799 5798 5797 5796 5795 5794 5793 5792 5791 5790 5790 5789 5788 5788 5787 5786 5785 5784 5782 5781 5779 5778 5776 5774 5772 5770 5768 5766 5764 5762 5761 5759 5757 5755 5752 5750 5748 5746 5744 5742 5741 5739 5737 5736 5734 5732 5730 5729 5727 5725 5723 5722 5720 5718 5716 5714 5712 5711 5709 5707 5705 5704 5701 5699 5697 5695 5693 5691 5689 5687 5685 5683 5680 5678 5676 5674
5800 5800 5800 5799 5800 5800 5800 5800 5800 5799 5799 5798 5798 5797 5796 5795 5794 5793 5792 5791 5790 5790 5789 5788 5788 5787 5786 5785 5784 5782 5781 5779 5778 5776 5774 5772 5770 5768 5766 5764 5762 5760 5758 5756 5754 5752 5750 5748 5746 5743 5741 5739 5738 5736 5734 5733 5731 5729 5728 5726 5724 5722 5720 5719 5717 5715 5713 5711 5709 5707 5706 5704 5702 5701 5698 5696 5694 5692 5690 5687 5685 5683 5681 5679 5677 5675 5672 5670
5799 5799 5799 5799 5799 5799 5799 5799 5799 5798 5798 5797 5796 5796 5795 5794 5793 5792 5791 5791 5790 5789 5789 5788 5787 5786 5785 5784 5782 5781 5779 5777 5775 5773 5771 5769 5768 5766 5764 5762 5759 5757 5755 5753 5751 5749 5747 5745 5743 5741 5739 5737 5735 5733 5732 5730 5728 5726 5725 5723 5721 5719 5717 5716 5714 5712 5710 5709 5707 5704 5703 5701 5699 5697 5695 5692 5690 5688 5686 5684 5682 5680 5677 5675 5673 5671 5669 5667
5798 5798 5798 5798 5798 5798 5798 5798 5798 5797 5797 5796 5795 5795 5794 5793 5792 5792 5791 5790 5790 5789 5788 5787 5786 5785 5784 5782 5781 5779 5777 5775 5773 5771 5769 5767 5765 5763 5761 5759 5757 5754 5752 5750 5748 5746 5744 5742 5740 5738 5736 5734 5733 5731 5729 5727 5725 5724 5722 5720 5718 5717 5715 5713 5711 5710 5708 5706 5704 5702 5700 5698 5696 5694 5691 5689 5687 5685 5683 5680 5678 5676 5674 5672 5669 5667 5665 5663
5797 5797 5797 5797 5797 5797 5797 5797 5797 5796 5796 5795 5794 5794 5793 5792 5792 5791 5791 5790 5789 5788 5788 5787 5785 5784 5782 5781 5779 5777 5775 5773 5771 5769 5767 5765 5763 5760 5758 5756 5754 5752 5750 5748 5746 5744 5742 5740 5738 5736 5734 5732 5730 5728 5727 5725 5723 5721 5720 5718 5716 5714 5712 5711 5709 5707 5705 5703 5702 5700 5697 5695 5693 5691 5688 5686 5683 5681 5679 5677 5675 5672 5670 5668 5666 5664 5661 5659
5796 5796 5797 5797 5797 5797 5797 5796 5796 5795 5795 5794 5794 5793 5793 5792 5792 5791 5791 5790 5789 5788 5787 5786 5784 5783 5781 5779 5777 5775 5773 5771 5769 5767 5765 5762 5760 5758 5756 5753 5751 5749 5747 5745 5743 5741 5739 5737 5735 5733 5731 5730 5728 5726 5724 5723 5721 5719 5717 5716 5714 5712 5710 5708 5707 5705 5703 5701 5699 5697 5694 5692 5690 5688 5685 5683 5680 5678 5675 5673 5671 5669 5667 5665 5663 5660 5658 5656
5796 5796 5796 5796 5796 5796 5796 5795 5795 5794 5794 5794 5793 5793 5792 5792 5791 5791 5790 5789 5788 5787 5786 5785 5783 5781 5780 5778 5776 5774 5771 5769 5767 5765 5762 5760 5758 5756 5753 5751 5749 5747 5744 5742 5740 5738 5737 5735 5733 5731 5729 5728 5726 5724 5723 5721 5719 5717 5715 5713 5712 5710 5708 5706 5704 5702 5700 5698 5696 5694 5692 5689 5687 5684 5681 5679 5677 5675 5672 5670 5667 5665 5663 5661 5659 5657 5654 5652
5795 5795 5795 5795 5795 5795 5795 5794 5794 5794 5793 5793 5793 5792 5792 5792 5791 5791 5790 5789 5788 5786 5785 5783 5782 5780 5778 5776 5774 5772 5769 5767 5765 5763 5761 5758 5756 5753 5751 5749 5747 5745 5742 5740 5738 5737 5735 5733 5731 5730 5728 5726 5724 5723 5721 5719 5717 5715 5714 5712 5710 5708 5706 5704 5702 5699 5697 5695 5693 5691 5689 5686 5684 5681 5678 5675 5673 5672 5669 5667 5664 5661 5659 5657 5655 5653 5651 5649
5795 5795 5795 5795 5795 5794 5794 5794 5793 5793 5793 5793 5792 5792 5792 5791 5791 5790 5789 5788 5787 5785 5784 5782 5780 5778 5776 5774 5772 5770 5768 5765 5763 5761 5759 5756 5754 5751 5749 5747 5745 5743 5741 5739 5737 5735 5734 5732 5730 5728 5726 5725 5723 5721 5719 5718 5716 5713 5711 5709 5707 5705 5703 5701 5699 5697 5695 5692 5690 5688 5686 5684 5681 5678 5675 5672 5670 5668 5666 5664 5661 5658 5655 5653 5651 5649 5647 5645
5794 5794 5794 5794 5794 5793 5793 5793 5793 5793 5792 5792 5792 5792 5791 5791 5790 5789 5788 5787 5786 5784 5783 5781 5779 5777 5775 5773 5771 5769 5766 5764 5761 5759 5757 5754 5752 5750 5747 5745 5744 5742 5740 5738 5736 5734 5733 5731 5729 5727 5725 5723 5721 5720 5718 5716 5714 5712 5709 5707 5705 5703 5701 5699 5697 5695 5693 5690 5687 5684 5682 5681 5679 5675 5672 5669 5667 5664 5663 5660 5657 5654 5652 5649 5647 5644 5642 5640
5793 5793 5793 5793 5793 5793 5793 5793 5793 5792 5792 5792 5792 5791 5791 5790 5790 5789 5788 5786 5785 5783 5782 5780 5778 5776 5774 5772 5769 5767 5765 5762 5760 5758 5755 5752 5750 5748 5747 5745 5743 5742 5740 5738 5736 5734 5732 5730 5728 5726 5724 5722 5720 5718 5716 5714 5712 5710 5708 5706 5703 5701 5698 5696 5693 5692 5690 5688 5686 5682 5679 5677 5676 5672 5667 5665 5664 5661 5658 5656 5654 5651 5648 5645 5642 5640 5638 5635
5793 5793 5792 5792 5792 5792 5792 5792 5792 5792 5792 5792 5792 5791 5791 5790 5789 5788 5787 5785 5784 5782 5780 5778 5777 5774 5773 5770 5768 5766 5764 5761 5759 5756 5753 5751 5750 5748 5747 5745 5743 5741 5739 5738 5736 5734 5732 5730 5728 5725 5724 5722 5720 5717 5715 5713 5711 5709 5706 5704 5701 5699 5696 5693 5690 5688 5686 5684 5684 5681 5678 5676 5673 5668 5663 5661 5659 5656 5653 5651 5649 5646 5643 5641 5638 5636 5633 5630
5792 5792 5792 5791 5792 5792 5792 5792 5792 5792 5792 5791 5791 5791 5790 5789 5788 5787 5786 5785 5783 5781 5779 5778 5776 5774 5771 5769 5767 5765 5763 5760 5757 5754 5753 5751 5750 5748 5747 5745 5743 5741 5739 5737 5735 5733 5731 5729 5727 5725 5722 5720 5718 5716 5713 5711 5709 5706 5704 5701 5699 5696 5693 5690 5687 5685 5681 5679 5679 5678 5676 5674 5670 5666 5661 5657 5654 5652 5649 5646 5643 5640 5637 5635 5633 5630 5627 5624
5791 5791 5791 5791 5791 5791 5791 5792 5792 5791 5791 5791 5791 5790 5790 5789 5788 5787 5785 5784 5782 5780 5778 5777 5775 5773 5771 5768 5766 5764 5762 5760 5757 5754 5753 5751 5750 5748 5746 5744 5742 5740 5738 5736 5734 5732 5730 5728 5726 5723 5721 5719 5716 5714 5711 5709 5706 5704 5701 5698 5696 5693 5691 5687 5683 5681 5677 5674 5674 5674 5674 5671 5667 5662 5658 5654 5650 5647 5644 5642 5638 5635 5632 5630 5628 5625 5622 5618
5790 5790 5790 5791 5791 5791 5791 5791 5791 5791 5791 5791 5790 5790 5789 5788 5787 5786 5784 5783 5781 5779 5778 5776 5774 5772 5770 5768 5766 5764 5762 5759 5757 5754 5753 5751 5750 5748 5746 5744 5742 5740 5738 5735 5733 5731 5729 5727 5724 5722 5720 5717 5714 5711 5709 5706 5704 5701 5698 5696 5692 5689 5687 5684 5680 5677 5673 5669 5666 5667 5669 5668 5663 5658 5654 5650 5646 5642 5639 5637 5633 5630 5627 5624 5621 5619 5616 5613
5789 5790 5790 5791 5791 5791 5791 5791 5791 5791 5791 5790 5790 5789 5788 5787 5786 5785 5783 5782 5780 5778 5777 5775 5773 5771 5769 5767 5765 5763 5761 5759 5757 5755 5753 5751 5749 5747 5745 5743 5741 5739 5737 5734 5732 5730 5727 5725 5723 5720 5718 5715 5713 5710 5707 5704 5701 5698 5696 5693 5690 5686 5683 5680 5678 5675 5670 5665 5661 5659 5662 5665 5660 5653 5649 5646 5642 5638 5634 5632 5629 5626 5622 5618 5615 5613 5610 5607
5789 5789 5790 5790 5791 5791 5791 5791 5791 5791 5790 5790 5789 5788 5788 5786 5785 5784 5783 5781 5780 5778 5776 5775 5773 5771 5769 5767 5765 5763 5761 5759 5757 5755 5753 5751 5749 5747 5745 5742 5740 5738 5736 5733 5731 5729 5726 5724 5721 5718 5715 5713 5710 5707 5705 5702 5699 5696 5693 5690 5686 5683 5680 5676 5674 5672 5668 5663 5659 5654 5655 5660 5656 5649 5645 5642 5637 5633 5630 5627 5625 5621 5617 5614 5610 5607 5604 5601
5789 5789 5790 5790 5790 5790 5790 5790 5790 5790 5790 5789 5789 5788 5787 5786 5785 5783 5782 5780 5779 5778 5776 5774 5773 5771 5769 5767 5765 5763 5761 5759 5757 5755 5752 5750 5748 5746 5744 5742 5739 5737 5735 5732 5730 5728 5725 5723 5720 5717 5714 5711 5708 5705 5703 5700 5697 5694 5690 5687 5683 5680 5676 5672 5669 5668 5665 5662 5658 5651 5650 5654 5651 5644 5641 5638 5633 5629 5626 5624 5621 5616 5613 5609 5606 5602 5599 5596
5789 5789 5790 5790 5790 5790 5790 5790 5790 5790 5789 5789 5788 5787 5786 5785 5784 5783 5781 5780 5779 5777 5776 5774 5772 5771 5769 5767 5765 5763 5761 5759 5757 5754 5752 5750 5748 5746 5743 5741 5739 5736 5734 5731 5729 5726 5724 5721 5719 5716 5713 5709 5705 5703 5700 5698 5695 5692 5688 5684 5681 5677 5674 5669 5665 5663 5661 5659 5656 5649 5645 5648 5646 5640 5637 5633 5628 5626 5623 5620 5616 5612 5608 5604 5600 5597 5594 5590
5789 5789 5789 5790 5790 5790 5790 5790 5790 5789 5789 5788 5787 5787 5785 5784 5783 5782 5781 5780 5778 5777 5775 5774 5772 5770 5768 5767 5765 5763 5761 5758 5756 5754 5752 5749 5747 5745 5742 5740 5738 5735 5733 5730 5727 5725 5722 5719 5717 5715 5712 5708 5705 5701 5698 5695 5692 5689 5686 5682 5678 5674 5671 5667 5663 5660 5657 5655 5652 5645 5640 5641 5641 5637 5633 5627 5623 5622 5619 5615 5611 5607 5604 5599 5595 5591 5587 5583
5788 5789 5789 5789 5789 5789 5789 5789 5789 5788 5788 5787 5787 5786 5785 5784 5783 5782 5780 5779 5778 5776 5775 5773 5772 5770 5768 5766 5764 5762 5760 5758 5756 5753 5751 5749 5746 5744 5741 5739 5736 5734 5731 5728 5726 5723 5720 5716 5713 5711 5709 5706 5702 5699 5695 5693 5690 5686 5683 5679 5675 5671 5667 5663 5659 5656 5653 5652 5648 5642 5637 5635 5636 5634 5628 5622 5619 5617 5614 5610 5606 5603 5599 5594 5590 5586 5582 5577
5788 5788 5789 5789 5789 5789 5789 5789 5788 5788 5787 5787 5786 5785 5784 5783 5782 5781 5780 5779 5777 5776 5774 5773 5771 5769 5767 5765 5763 5761 5759 5757 5754 5752 5750 5748 5745 5742 5740 5737 5735 5732 5729 5726 5724 5721 5718 5715 5711 5708 5704 5701 5697 5694 5691 5688 5686 5683 5680 5676 5671 5668 5663 5659 5655 5651 5648 5646 5643 5640 5634 5630 5631 5631 5624 5617 5614 5611 5609 5605 5602 5598 5594 5590 5585 5581 5577 5572
5787 5788 5788 5788 5789 5788 5788 5788 5788 5787 5787 5786 5785 5784 5783 5783 5781 5780 5779 5778 5776 5775 5773 5772 5770 5768 5766 5764 5762 5760 5758 5755 5753 5751 5749 5746 5744 5741 5738 5735 5733 5730 5727 5724 5721 5719 5716 5714 5710 5707 5704 5700 5695 5692 5688 5685 5682 5679 5676 5672 5668 5664 5659 5655 5651 5647 5644 5639 5637 5637 5630 5624 5626 5627 5619 5614 5610 5606 5603 5600 5596 5593 5589 5584 5580 5575 5571 5566
5787 5787 5788 5788 5788 5788 5787 5787 5787 5786 5786 5785 5784 5784 5783 5782 5781 5780 5778 5777 5776 5774 5772 5771 5769 5767 5765 5763 5761 5759 5757 5754 5752 5749 5747 5744 5742 5739 5736 5733 5730 5727 5724 5721 5718 5715 5713 5711 5707 5704 5702 5699 5694 5690 5686 5682 5680 5676 5673 5669 5664 5659 5655 5651 5647 5643 5639 5634 5632 5632 5627 5619 5620 5620 5614 5609 5606 5601 5597 5594 5591 5587 5583 5577 5573 5568 5564 5559
5787 5787 5787 5787 5787 5787 5787 5787 5786 5786 5785 5784 5784 5783 5782 5781 5780 5779 5778 5776 5775 5773 5771 5770 5768 5766 5764 5762 5760 5757 5755 5753 5750 5748 5745 5742 5739 5737 5734 5731 5728 5725 5722 5718 5715 5711 5708 5707 5704 5700 5699 5696 5691 5687 5683 5679 5676 5673 5670 5665 5661 5656 5651 5647 5643 5639 5635 5629 5627 5626 5622 5616 5615 5613 5608 5604 5600 5595 5591 5588 5584 5581 5576 5570 5565 5560 5556 5552
5786 5786 5787 5787 5786 5786 5786 5786 5785 5785 5784 5784 5783 5782 5781 5780 5779 5778 5777 5775 5774 5772 5770 5768 5766 5765 5763 5760 5758 5756 5753 5751 5748 5746 5743 5740 5737 5734 5732 5729 5725 5722 5719 5715 5712 5708 5704 5702 5699 5695 5694 5693 5689 5684 5680 5676 5673 5670 5667 5662 5657 5652 5647 5642 5638 5635 5629 5625 5623 5620 5615 5613 5611 5606 5601 5599 5594 5588 5585 5581 5578 5575 5569 5563 5558 5553 5549 5545
5786 5786 5786 5786 5786 5786 5785 5785 5784 5784 5783 5783 5782 5781 5780 5779 5778 5777 5775 5774 5772 5771 5769 5767 5765 5763 5761 5759 5756 5754 5751 5749 5746 5743 5741 5738 5735 5732 5729 5726 5722 5719 5716 5712 5709 5705 5700 5697 5694 5689 5687 5688 5685 5680 5676 5672 5669 5667 5663 5658 5652 5647 5642 5637 5633 5629 5624 5620 5618 5613 5608 5608 5607 5600 5595 5592 5588 5583 5578 5574 5572 5569 5562 5555 5551 5547 5542 5538
5785 5785 5785 5785 5785 5785 5785 5784 5784 5783 5783 5782 5781 5780 5779 5778 5777 5776 5774 5773 5771 5769 5767 5765 5763 5761 5759 5757 5754 5752 5749 5746 5744 5741 5738 5735 5732 5729 5725 5722 5719 5716 5713 5709 5705 5701 5696 5692 5689 5684 5680 5681 5679 5674 5670 5667 5664 5662 5658 5654 5648 5642 5637 5633 5629 5624 5619 5615 5612 5607 5603 5601 5599 5594 5589 5586 5581 5576 5571 5567 5564 5561 5555 5548 5543 5539 5535 5531
5785 5785 5785 5785 5785 5784 5784 5783 5783 5782 5782 5781 5780 5779 5778 5777 5776 5774 5773 5771 5769 5768 5766 5763 5761 5759 5757 5754 5752 5749 5746 5744 5741 5738 5735 5732 5729 5726 5722 5719 5716 5712 5709 5705 5701 5698 5693 5688 5685 5679 5674 5674 5672 5667 5663 5660 5658 5656 5653 5647 5642 5636 5631 5628 5624 5619 5615 5610 5605 5600 5597 5594 5590 5586 5583 5579 5575 5569 5564 5560 5556 5552 5546 5541 5536 5532 5527 5523